Time,TemperatureF,DewpointF,PressureIn,WindDirection,WindDirectionDegrees,WindSpeedMPH,WindSpeedGustMPH,Humidity,HourlyPrecipIn,Conditions,Clouds,dailyrainin,SoftwareType,DateUTC
2013-03-19 09:33:00,16.0,11.0,29.47,WNW,296,12.0,24.0,80,0.00,,,0.00,,2013-03-19 14:33:00,
2013-03-19 09:42:00,16.0,11.0,29.47,WNW,296,12.0,24.0,80,0.00,,,0.00,,2013-03-19 14:42:00,
2013-03-19 09:52:00,17.0,11.0,29.47,WNW,297,12.0,25.0,78,0.00,,,0.00,,2013-03-19 14:52:00,
2013-03-19 10:02:00,17.0,11.0,29.47,WNW,291,12.0,20.0,77,0.00,,,0.00,,2013-03-19 15:02:00,
2013-03-19 10:12:00,17.0,11.0,29.47,WNW,291,12.0,20.0,77,0.00,,,0.00,,2013-03-19 15:12:00,
2013-03-19 10:22:00,17.0,11.0,29.48,WNW,290,11.0,19.0,76,0.00,,,0.00,,2013-03-19 15:22:00,
2013-03-19 10:33:00,18.0,11.0,29.49,WNW,299,12.0,24.0,75,0.00,,,0.00,,2013-03-19 15:33:00,
2013-03-19 10:43:00,18.0,11.0,29.49,WNW,299,12.0,24.0,75,0.00,,,0.00,,2013-03-19 15:43:00,
2013-03-19 10:53:00,18.0,11.0,29.49,WNW,303,12.0,24.0,74,0.00,,,0.00,,2013-03-19 15:53:00,
2013-03-19 11:03:00,19.0,11.0,29.49,NW,304,11.0,19.0,72,0.00,,,0.00,,2013-03-19 16:03:00,
2013-03-19 11:13:00,19.0,11.0,29.49,NW,304,11.0,19.0,72,0.00,,,0.00,,2013-03-19 16:13:00,
2013-03-19 11:24:00,20.0,11.0,29.49,NW,319,12.0,19.0,66,0.00,,,0.00,,2013-03-19 16:24:00,
2013-03-19 11:34:00,20.0,10.0,29.50,NW,308,11.0,21.0,65,0.00,,,0.00,,2013-03-19 16:34:00,
2013-03-19 11:43:00,20.0,10.0,29.50,NW,308,11.0,21.0,65,0.00,,,0.00,,2013-03-19 16:43:00,
2013-03-19 11:54:00,21.0,10.0,29.51,NW,311,15.0,25.0,63,0.00,,,0.00,,2013-03-19 16:54:00,
2013-03-19 12:03:00,22.0,11.0,29.51,NW,311,15.0,27.0,61,0.00,,,0.00,,2013-03-19 17:03:00,
2013-03-19 12:13:00,22.0,11.0,29.51,NW,304,15.0,26.0,62,0.00,,,0.00,,2013-03-19 17:13:00,
2013-03-19 12:23:00,22.0,11.0,29.51,NW,304,15.0,26.0,62,0.00,,,0.00,,2013-03-19 17:23:00,
2013-03-19 12:34:00,22.0,10.0,29.52,NW,314,15.0,26.0,59,0.00,,,0.00,,2013-03-19 17:34:00,
2013-03-19 12:43:00,22.0,10.0,29.52,NW,314,15.0,26.0,59,0.00,,,0.00,,2013-03-19 17:43:00,
2013-03-19 12:52:00,22.0,10.0,29.52,NW,314,15.0,26.0,59,0.00,,,0.00,,2013-03-19 17:52:00,
2013-03-19 13:03:00,23.0,10.0,29.53,NW,311,13.0,29.0,58,0.00,,,0.00,,2013-03-19 18:03:00,
2013-03-19 13:13:00,23.0,10.0,29.53,NW,311,13.0,29.0,58,0.00,,,0.00,,2013-03-19 18:13:00,
2013-03-19 13:23:00,24.0,11.0,29.54,NW,317,15.0,25.0,58,0.00,,,0.00,,2013-03-19 18:23:00,
2013-03-19 13:33:00,25.0,12.0,29.55,NW,310,14.0,26.0,56,0.00,,,0.00,,2013-03-19 18:33:00,
2013-03-19 13:42:00,25.0,12.0,29.55,NW,310,14.0,26.0,56,0.00,,,0.00,,2013-03-19 18:42:00,
2013-03-19 13:53:00,25.0,12.0,29.55,NW,317,16.0,26.0,57,0.00,,,0.00,,2013-03-19 18:53:00,
2013-03-19 14:02:00,25.0,12.0,29.55,NW,308,15.0,27.0,58,0.00,,,0.00,,2013-03-19 19:02:00,
2013-03-19 14:12:00,25.0,12.0,29.55,NW,308,15.0,27.0,58,0.00,,,0.00,,2013-03-19 19:12:00,
2013-03-19 14:22:00,26.0,12.0,29.56,WNW,302,14.0,24.0,55,0.00,,,0.00,,2013-03-19 19:22:00,
2013-03-19 14:33:00,26.0,13.0,29.56,WNW,294,13.0,21.0,58,0.00,,,0.00,,2013-03-19 19:33:00,
2013-03-19 14:42:00,26.0,13.0,29.56,WNW,294,13.0,21.0,58,0.00,,,0.00,,2013-03-19 19:42:00,
2013-03-19 14:53:00,26.0,13.0,29.57,WNW,296,10.0,19.0,57,0.00,,,0.00,,2013-03-19 19:53:00,
2013-03-19 15:02:00,28.0,14.0,29.57,NW,306,14.0,26.0,54,0.00,,,0.00,,2013-03-19 20:02:00,
2013-03-19 15:12:00,28.0,14.0,29.57,NW,307,14.0,25.0,54,0.00,,,0.00,,2013-03-19 20:12:00,
2013-03-19 15:22:00,28.0,14.0,29.57,NW,307,14.0,25.0,54,0.00,,,0.00,,2013-03-19 20:22:00,
2013-03-19 15:32:00,28.0,13.0,29.58,WNW,303,16.0,25.0,52,0.00,,,0.00,,2013-03-19 20:32:00,
2013-03-19 15:42:00,28.0,13.0,29.58,WNW,303,16.0,25.0,52,0.00,,,0.00,,2013-03-19 20:42:00,
2013-03-19 15:52:00,29.0,14.0,29.59,WNW,302,15.0,24.0,52,0.00,,,0.00,,2013-03-19 20:52:00,
2013-03-19 16:02:00,29.0,14.0,29.59,NW,305,14.0,26.0,52,0.00,,,0.00,,2013-03-19 21:02:00,
2013-03-19 16:12:00,29.0,13.0,29.59,WNW,300,13.0,24.0,51,0.00,,,0.00,,2013-03-19 21:12:00,
2013-03-19 16:22:00,29.0,13.0,29.59,WNW,300,13.0,24.0,51,0.00,,,0.00,,2013-03-19 21:22:00,
2013-03-19 16:33:00,30.0,14.0,29.61,NW,313,13.0,28.0,50,0.00,,,0.00,,2013-03-19 21:33:00,
2013-03-19 16:43:00,30.0,14.0,29.61,NW,313,13.0,28.0,50,0.00,,,0.00,,2013-03-19 21:43:00,
2013-03-19 16:52:00,30.0,13.0,29.61,NW,308,11.0,22.0,49,0.00,,,0.00,,2013-03-19 21:52:00,
2013-03-19 17:03:00,30.0,13.0,29.61,NW,306,12.0,20.0,49,0.00,,,0.00,,2013-03-19 22:03:00,
2013-03-19 17:12:00,30.0,13.0,29.61,NW,306,12.0,20.0,49,0.00,,,0.00,,2013-03-19 22:12:00,
2013-03-19 17:23:00,31.0,13.0,29.63,NW,311,11.0,21.0,47,0.00,,,0.00,,2013-03-19 22:23:00,
2013-03-19 17:33:00,31.0,14.0,29.63,NW,308,11.0,24.0,48,0.00,,,0.00,,2013-03-19 22:33:00,
2013-03-19 17:43:00,31.0,13.0,29.63,NW,310,10.0,26.0,47,0.00,,,0.00,,2013-03-19 22:43:00,
2013-03-19 17:53:00,31.0,13.0,29.63,NW,310,10.0,26.0,47,0.00,,,0.00,,2013-03-19 22:53:00,
2013-03-19 18:02:00,30.0,12.0,29.65,NW,316,12.0,21.0,46,0.00,,,0.00,,2013-03-19 23:02:00,
2013-03-19 18:12:00,30.0,12.0,29.65,NW,316,12.0,21.0,46,0.00,,,0.00,,2013-03-19 23:12:00,
2013-03-19 18:22:00,30.0,13.0,29.65,NW,316,11.0,24.0,48,0.00,,,0.00,,2013-03-19 23:22:00,
2013-03-19 18:32:00,30.0,13.0,29.65,NW,307,10.0,20.0,48,0.00,,,0.00,,2013-03-19 23:32:00,
2013-03-19 18:42:00,30.0,13.0,29.65,NW,307,10.0,20.0,48,0.00,,,0.00,,2013-03-19 23:42:00,
2013-03-19 18:52:00,29.0,11.0,29.67,NW,311,9.0,16.0,47,0.00,,,0.00,,2013-03-19 23:52:00,
2013-03-19 19:03:00,28.0,11.0,29.67,WNW,300,8.0,15.0,49,0.00,,,0.00,,2013-03-20 00:03:00,
2013-03-19 19:12:00,28.0,11.0,29.67,WNW,300,8.0,15.0,49,0.00,,,0.00,,2013-03-20 00:12:00,
2013-03-19 19:22:00,27.0,10.0,29.68,WNW,295,8.0,18.0,49,0.00,,,0.00,,2013-03-20 00:22:00,
2013-03-19 19:33:00,26.0,10.0,29.68,West,281,9.0,18.0,50,0.00,,,0.00,,2013-03-20 00:33:00,
2013-03-19 19:42:00,26.0,10.0,29.68,West,281,9.0,18.0,50,0.00,,,0.00,,2013-03-20 00:42:00,
2013-03-19 19:52:00,26.0,10.0,29.68,WNW,291,9.0,20.0,50,0.00,,,0.00,,2013-03-20 00:52:00,
2013-03-19 20:03:00,25.0,9.0,29.69,WNW,286,9.0,17.0,50,0.00,,,0.00,,2013-03-20 01:03:00,
2013-03-19 20:12:00,25.0,9.0,29.69,WNW,286,9.0,17.0,50,0.00,,,0.00,,2013-03-20 01:12:00,
2013-03-19 20:22:00,25.0,9.0,29.70,WNW,294,9.0,19.0,49,0.00,,,0.00,,2013-03-20 01:22:00,
2013-03-19 20:30:00,24.0,8.0,29.71,WNW,294,11.0,22.0,50,0.00,,,0.00,,2013-03-20 01:30:00,
2013-03-19 20:32:00,25.0,9.0,29.70,WNW,294,9.0,19.0,49,0.00,,,0.00,,2013-03-20 01:32:00,
2013-03-19 20:43:00,25.0,9.0,29.70,WNW,294,9.0,19.0,49,0.00,,,0.00,,2013-03-20 01:43:00,
2013-03-19 20:52:00,24.0,8.0,29.71,WNW,294,11.0,22.0,50,0.00,,,0.00,,2013-03-20 01:52:00,
2013-03-19 21:02:00,24.0,8.0,29.71,WNW,294,11.0,22.0,50,0.00,,,0.00,,2013-03-20 02:02:00,
2013-03-19 21:12:00,24.0,8.0,29.71,WNW,294,11.0,22.0,50,0.00,,,0.00,,2013-03-20 02:12:00,
2013-03-19 21:22:00,24.0,8.0,29.71,WNW,294,11.0,22.0,50,0.00,,,0.00,,2013-03-20 02:22:00,